Temperature
22 21 20 20 20 20 22 24 25 25 24 24 24 23 22 21 21 19 19 19 20 19 19 19 19 19 19 19 19 19 19 19 19 19 19 19 19 19 19 19 19 19 19 19 19 19 19 19 18
22 21 20 20 21 21 23 25 25 25 25 24 24 23 22 21 20 19 19 19 20 20 19 19 19 19 19 19 19 19 19 19 19 19 19 19 19 19 19 19 19 19 19 19 19 19 19 19 18
22 21 21 20 22 22 24 25 25 26 25 25 24 23 22 20 19 19 20 20 20 20 20 20 19 19 19 19 19 19 19 19 19 19 19 19 19 19 19 19 19 19 19 19 19 19 19 18 18
22 21 21 21 23 24 25 25 26 26 25 24 23 22 21 21 21 20 20 20 20 20 20 20 20 19 19 19 19 19 19 19 19 19 19 19 19 19 19 19 19 19 19 19 19 19 19 18 18
22 22 21 22 24 26 26 26 26 25 25 24 23 21 21 21 21 20 20 20 20 20 20 20 20 20 19 19 19 19 19 19 19 19 19 19 19 19 19 19 19 19 19 19 19 19 19 18 18
23 22 22 23 25 26 26 27 26 25 24 23 22 21 21 21 21 20 20 20 21 20 20 20 20 20 19 19 19 19 19 19 19 19 19 19 19 19 19 19 19 19 19 19 19 19 19 18 18
23 22 23 24 25 26 26 27 26 25 24 23 23 21 20 20 21 20 20 20 20 20 20 20 20 20 19 19 19 19 19 19 19 19 19 19 19 19 19 19 19 19 19 19 19 19 18 18 18
25 22 24 25 25 26 27 27 26 25 24 24 23 21 21 21 20 20 20 20 20 20 20 20 20 20 20 19 19 19 19 19 19 19 19 19 19 19 19 19 19 19 19 19 19 19 18 18 18
26 23 23 25 26 26 27 27 26 26 25 24 24 23 22 21 21 20 20 20 20 20 20 20 20 20 20 20 19 19 19 19 19 19 19 19 19 19 19 19 19 19 19 19 19 19 19 18 18
25 23 25 27 27 27 27 27 26 25 24 23 23 22 22 21 21 21 20 20 20 20 20 20 20 20 20 19 20 19 19 19 19 19 19 19 19 19 19 19 19 19 19 19 19 18 18 18 19
26 25 27 28 29 28 27 27 27 25 23 23 22 22 22 21 21 21 21 21 20 20 20 20 20 20 20 20 20 20 19 19 19 19 19 19 19 19 19 19 19 19 19 19 19 19 19 19 19
27 28 29 29 29 29 28 27 26 25 25 24 24 23 22 22 21 21 21 21 21 20 20 20 20 20 20 20 20 20 19 19 19 19 19 19 19 19 19 19 19 19 19 19 19 19 19 19 19
28 28 29 29 29 29 28 27 26 25 25 24 24 23 22 22 22 22 22 21 21 21 20 20 20 20 20 20 20 20 19 19 19 19 19 19 19 19 19 19 19 19 19 19 19 19 19 19 19
28 29 29 29 29 29 28 27 26 25 25 24 23 23 23 23 22 22 22 21 21 21 21 20 20 20 20 20 20 20 19 19 19 19 19 19 19 19 19 19 19 19 19 19 19 19 19 19 19
29 28 28 28 28 28 27 26 25 25 25 24 24 23 23 23 23 22 22 22 22 21 21 21 21 20 20 20 20 20 20 19 19 19 19 19 19 19 19 19 19 19 19 19 19 19 19 19 19
28 27 26 28 28 28 26 25 26 25 25 24 24 24 24 23 23 23 23 22 22 21 21 21 21 20 20 20 20 20 19 19 19 19 19 19 19 19 19 19 19 19 19 19 19 19 19 19 19
26 26 26 27 28 27 26 25 25 26 25 25 24 24 24 24 23 23 23 23 22 22 21 21 21 20 20 20 20 20 20 19 19 19 19 19 19 19 19 19 19 19 19 19 19 19 19 19 19
25 26 27 27 28 27 26 25 25 26 25 25 25 24 24 24 24 23 23 23 22 22 22 21 21 21 20 20 20 20 20 19 19 19 19 19 19 19 19 19 19 19 19 19 19 19 19 19 19
27 27 26 27 28 27 26 25 25 25 25 25 25 24 24 24 24 24 23 23 22 22 22 21 21 21 20 20 20 20 20 19 19 19 19 19 19 19 19 19 19 19 19 19 19 19 18 18 19
27 26 26 27 28 27 25 25 25 25 25 25 25 24 24 24 24 23 23 23 22 22 22 21 21 21 20 20 20 20 19 19 19 19 19 19 19 19 19 19 19 19 19 19 19 18 18 18 18
27 26 26 26 27 26 26 25 25 25 25 26 25 25 25 24 24 23 23 23 23 22 22 22 21 21 20 20 20 19 19 19 19 19 19 19 19 19 19 19 19 19 19 19 18 18 18 18 18
27 28 28 28 25 24 25 23 24 24 24 25 25 24 25 24 24 24 23 23 23 23 22 22 21 21 20 20 20 19 19 19 19 19 19 19 19 19 19 19 19 19 19 18 18 18 18 18 18
28 29 28 27 25 23 24 23 23 23 23 24 24 24 24 25 24 24 24 24 23 23 22 22 21 21 20 20 20 19 19 19 19 19 19 19 19 19 19 19 19 19 19 18 18 18 18 18 18
29 27 26 24 22 23 23 23 22 22 23 23 24 24 25 24 24 24 24 24 23 23 22 22 22 21 20 20 20 20 19 19 19 19 19 19 19 18 18 18 18 18 18 18 18 18 18 18 18
27 24 23 23 22 22 22 23 22 23 24 24 24 24 25 25 24 24 24 23 23 23 22 22 22 21 21 20 20 20 19 19 19 19 19 19 18 18 18 18 18 18 18 18 18 18 18 18 18
27 24 23 23 22 22 22 22 23 24 24 25 25 25 25 25 24 24 24 23 23 23 22 22 21 21 21 20 20 20 19 19 19 19 19 19 18 18 18 18 18 18 18 18 18 18 18 17 17
27 25 23 22 22 21 22 22 23 24 24 24 24 24 24 24 24 24 23 23 23 22 22 22 21 21 21 20 20 20 19 19 19 19 19 19 18 18 18 18 18 18 18 18 18 18 17 17 17
26 25 22 22 22 22 22 22 22 23 23 23 23 23 23 24 24 24 23 23 23 22 22 22 21 21 21 20 20 20 19 19 19 19 19 18 18 18 18 18 18 18 18 18 17 17 17 17 17
25 25 22 20 21 21 21 22 23 23 22 23 23 24 24 24 24 23 23 23 22 22 22 21 21 21 21 20 20 20 19 19 19 19 19 18 18 18 18 18 18 18 18 18 17 17 17 17 17
26 24 22 22 21 20 20 21 24 23 23 23 23 24 24 24 24 23 23 22 22 21 21 21 21 21 21 20 20 20 19 19 19 18 18 18 18 18 18 18 18 17 17 17 17 17 17 17 17
Wind_Speed
12 10 4 2 1 3 2 3 6 6 6 8 10 10 8 6 4 5 4 9 10 9 11 15 16 16 17 17 16 16 16 16 16 15 15 15 15 14 14 13 13 12 12 11 10 9 9 9 9
9 6 2 0 3 3 2 4 9 9 10 11 11 11 9 7 7 8 6 10 11 10 11 14 16 16 17 17 16 16 15 15 15 15 14 14 14 13 13 13 12 11 11 11 10 9 8 8 8
7 5 1 1 2 3 3 6 10 10 9 8 7 6 6 6 8 6 8 13 11 10 11 14 16 16 17 17 16 15 15 15 14 14 13 13 13 12 12 12 11 10 10 10 8 8 8 7 7
3 1 1 2 2 3 6 8 11 12 10 9 9 7 5 5 6 10 13 13 12 9 11 14 16 17 17 16 16 15 15 14 14 13 13 13 12 11 10 10 10 10 9 9 8 7 7 6 6
1 1 2 2 2 4 6 8 9 9 6 10 11 8 5 5 13 16 15 13 13 9 10 14 17 17 17 16 15 15 14 14 13 12 12 12 11 11 10 10 9 9 9 8 7 7 6 5 5
1 2 3 2 2 4 5 9 11 15 14 13 11 8 4 8 14 14 14 12 12 11 9 13 17 17 16 15 14 14 14 13 12 12 11 11 10 10 9 9 9 8 8 7 7 6 5 5 4
2 2 2 2 3 4 5 7 10 11 11 8 9 7 5 8 11 13 12 12 11 10 9 9 12 14 15 14 13 13 13 12 11 11 10 10 9 9 8 8 8 8 8 7 7 6 5 4 4
4 2 0 2 4 3 5 6 9 12 9 11 8 8 8 10 12 12 12 11 10 9 8 7 9 10 11 11 12 12 12 11 10 9 9 8 8 7 7 7 8 8 8 8 7 6 6 5 5
3 2 2 4 5 4 6 9 7 7 9 5 5 7 12 15 15 13 11 9 8 9 7 6 7 8 9 10 10 10 10 10 9 8 8 7 5 5 6 7 8 8 8 8 7 7 6 6 5
4 3 5 5 6 7 8 11 10 7 9 8 11 12 15 15 15 14 13 12 10 10 8 6 7 7 8 8 8 7 7 7 7 6 6 5 5 5 5 7 8 8 8 8 7 6 5 5 3
4 5 3 3 7 9 8 7 7 12 8 13 17 18 16 15 13 13 12 12 11 11 10 8 7 7 7 5 7 5 5 6 6 6 7 5 4 4 4 4 5 6 6 5 5 5 4 4 4
2 3 3 3 6 7 7 6 7 8 10 16 18 19 16 15 13 13 13 11 10 10 10 9 8 7 6 6 5 5 4 4 5 6 7 6 3 2 3 3 4 4 4 4 4 4 4 4 4
1 1 1 4 6 8 9 9 9 8 12 15 17 17 16 15 12 12 12 11 10 10 10 9 8 7 6 5 4 4 4 4 5 6 6 7 3 2 3 3 3 4 4 4 3 3 3 2 2
2 1 2 3 5 7 11 7 7 11 16 15 16 15 14 15 13 11 11 11 10 10 10 9 9 7 6 4 3 3 4 5 5 5 6 6 5 3 2 2 3 3 5 5 4 3 3 2 1
2 3 3 0 3 4 10 6 8 15 16 16 15 14 13 13 13 13 14 13 12 11 10 9 9 7 6 5 4 3 4 4 4 4 5 6 6 5 3 2 2 3 4 4 3 2 1 1 1
3 3 1 3 3 3 7 6 9 14 15 14 13 14 13 12 13 13 14 12 11 11 10 10 9 8 6 5 3 2 3 3 3 4 4 5 6 5 3 2 2 3 3 2 2 1 1 1 1
3 1 3 3 2 3 4 5 8 11 14 14 13 13 12 11 11 11 13 13 12 12 11 9 8 8 7 5 3 2 2 2 3 3 3 4 5 5 3 2 2 2 2 1 2 1 2 1 1
3 3 3 4 3 4 4 4 8 11 12 13 12 12 12 13 12 12 13 13 12 11 10 9 8 7 6 4 2 1 2 1 2 3 4 4 4 4 3 2 2 2 1 1 1 1 1 1 1
4 4 6 6 4 2 5 6 8 11 10 11 12 12 12 12 10 12 13 13 12 10 9 9 8 7 5 3 3 2 1 1 1 2 3 4 3 4 3 1 2 2 2 2 2 1 1 1 1
5 5 6 4 2 3 5 5 9 12 14 14 15 15 13 11 10 12 12 12 12 12 10 9 8 7 6 4 4 3 3 2 2 1 2 3 2 2 3 2 3 3 2 2 2 1 1 0 1
7 7 7 5 2 2 3 1 5 6 8 9 12 13 13 15 15 14 13 12 12 12 11 11 9 8 7 5 3 2 2 1 1 0 1 1 2 3 3 3 2 2 3 3 2 2 2 1 0
7 8 7 5 2 2 2 2 6 5 6 8 10 11 13 13 13 13 13 13 13 13 11 9 9 8 6 6 5 5 3 3 3 2 2 1 2 2 3 3 2 2 2 3 2 2 2 2 1
6 6 4 3 2 1 2 2 6 1 5 8 9 12 14 14 15 15 14 14 13 12 10 9 8 7 6 6 6 5 3 3 2 1 2 2 1 1 2 2 2 1 1 2 2 1 2 2 2
5 1 3 4 5 1 4 3 6 4 8 8 9 11 12 13 13 13 12 11 9 9 9 9 9 7 7 6 6 5 5 4 3 2 2 2 1 1 1 2 1 1 1 2 3 2 2 2 2
1 4 3 4 4 4 4 2 7 6 6 7 8 9 9 10 11 12 12 11 10 10 10 9 9 8 8 7 6 6 6 6 5 4 3 2 1 1 2 2 1 2 2 2 2 2 2 2 2
3 7 7 5 5 4 3 3 6 5 3 4 5 6 8 10 10 12 12 12 11 11 10 10 9 8 8 8 7 6 6 5 4 4 4 4 3 3 3 2 2 2 2 2 2 2 2 2 2
2 3 8 7 3 1 3 4 6 2 1 2 3 5 7 9 10 11 11 11 11 11 11 10 9 7 7 7 6 5 5 5 5 4 3 3 3 3 3 2 2 2 3 3 2 2 2 2 2
5 5 4 5 4 3 3 3 4 5 5 3 5 6 6 6 7 9 9 10 10 10 9 8 8 7 7 7 6 6 5 5 4 4 4 3 3 3 3 2 2 2 2 3 2 1 2 2 2
2 2 3 4 6 7 4 6 6 9 7 6 7 7 7 7 7 8 8 9 9 9 8 8 7 6 6 6 6 5 5 5 4 4 4 4 3 3 3 3 2 2 2 2 2 2 2 2 2
4 3 5 4 3 5 5 6 5 7 6 7 6 6 7 7 7 8 9 9 9 8 8 7 7 7 6 6 5 4 4 4 4 4 4 3 3 3 3 3 2 2 2 1 2 3 2 2 2
Wind_Direction
163 159 161 184 36 43 61 87 100 80 71 70 78 82 81 64 88 126 148 139 133 131 134 132 128 126 125 125 124 122 123 123 122 123 124 124 124 123 124 124 125 127 129 128 130 128 125 123 123
163 164 174 131 66 68 64 102 97 98 121 109 83 79 73 67 83 114 126 136 133 131 132 131 129 128 128 128 127 126 126 126 126 127 126 128 127 126 126 128 130 131 134 135 136 135 134 132 130
172 188 177 67 93 132 131 115 111 107 111 102 89 66 67 94 107 120 135 137 128 125 130 134 133 133 131 130 129 130 129 128 128 128 127 130 130 129 131 132 133 135 135 137 139 139 138 138 136
164 165 36 63 112 156 140 134 123 110 88 81 94 72 63 94 119 130 135 134 127 124 131 134 137 137 133 131 132 133 133 133 133 130 128 131 133 133 136 137 138 139 139 139 141 140 138 135 133
121 95 44 55 113 120 128 130 122 105 88 91 92 94 75 81 117 130 136 133 130 128 131 131 134 137 135 134 135 136 135 136 135 134 134 135 137 138 139 142 144 145 147 148 148 148 149 149 146
82 73 61 75 102 107 117 120 109 102 110 106 102 101 93 122 128 137 137 135 135 134 133 135 135 137 137 138 138 137 138 139 139 141 142 144 145 147 150 153 155 157 160 161 163 167 167 168 171
146 105 167 159 119 122 145 128 115 123 124 125 125 105 121 139 139 138 137 134 133 135 134 135 138 139 141 142 143 144 144 145 147 149 152 154 157 159 162 165 166 168 172 175 179 184 191 197 208
174 115 254 142 120 131 141 117 119 125 116 132 127 127 151 162 144 135 133 131 133 138 140 140 140 142 145 147 148 152 154 157 160 161 162 164 168 170 174 176 182 184 188 191 192 197 210 222 227
148 90 212 187 148 150 133 116 119 102 115 132 113 131 149 147 137 132 130 128 139 146 151 150 151 154 156 157 157 161 165 170 172 171 168 171 180 186 190 193 196 197 199 202 204 210 222 233 238
138 161 213 192 153 145 137 128 133 112 108 104 106 119 136 141 141 142 145 148 153 157 164 162 162 164 169 169 164 173 175 178 180 184 183 183 189 198 201 201 205 207 207 209 214 221 231 239 245
168 189 199 152 144 138 131 131 128 127 134 147 144 146 148 147 149 151 155 158 162 163 164 169 171 170 171 164 162 176 179 183 193 200 200 197 194 202 209 201 213 212 209 214 227 235 235 227 223
178 220 171 149 137 132 136 132 120 129 156 156 151 152 153 156 160 161 161 163 161 158 161 164 167 166 167 163 165 172 177 184 199 204 197 183 181 192 194 196 202 198 201 207 218 225 232 240 240
218 258 89 138 132 127 122 128 126 131 139 145 149 152 159 163 167 167 162 161 159 160 162 163 159 162 162 158 175 170 180 186 196 194 185 175 177 183 191 201 208 209 207 209 215 221 232 247 252
254 359 37 106 118 130 123 123 114 142 143 148 154 160 165 167 166 161 159 162 163 162 163 163 157 161 164 165 170 175 175 182 186 189 188 180 175 176 186 201 211 215 216 219 217 217 216 226 211
344 15 3 107 126 136 117 107 144 155 150 156 163 166 165 167 165 166 168 166 165 163 160 163 166 165 168 174 182 177 172 170 180 190 190 183 176 172 178 197 204 213 215 214 210 216 195 207 211
8 44 312 272 145 146 119 161 172 161 156 161 166 166 164 168 168 167 167 165 161 158 158 167 168 167 171 176 187 187 169 162 178 177 175 178 171 167 170 194 212 210 193 181 182 180 182 223 211
21 319 272 292 179 143 123 172 186 170 162 166 169 168 166 168 166 165 164 163 160 160 161 166 162 168 174 173 176 172 160 164 183 172 167 174 169 169 169 195 216 188 168 179 190 167 174 196 229
253 270 273 266 229 140 146 173 177 179 174 173 172 171 171 171 173 169 164 163 161 161 160 162 162 169 166 154 137 110 111 152 165 167 170 172 179 175 172 193 205 173 162 178 173 178 189 194 216
221 258 266 267 245 155 175 169 183 184 184 181 178 177 179 179 172 166 164 162 160 161 161 163 161 169 160 149 148 147 172 194 194 188 171 172 179 183 183 202 190 184 182 196 175 171 188 232 111
241 257 267 293 252 184 179 188 195 190 196 190 185 184 182 174 165 167 166 166 166 168 168 167 168 171 170 170 170 172 173 195 200 197 160 164 174 195 199 197 196 185 178 177 175 151 144 219 129
249 224 230 226 317 53 134 277 215 208 203 195 189 184 181 180 176 174 173 174 172 173 174 175 175 175 177 171 152 133 97 72 57 174 188 195 190 192 188 183 177 178 175 184 193 169 154 171 243
250 235 209 190 164 268 139 223 272 224 201 199 193 184 183 183 178 178 176 178 180 181 177 170 173 175 176 163 157 163 170 187 210 201 199 215 193 185 164 145 151 162 168 165 196 178 172 161 195
234 227 182 176 140 50 350 142 279 230 208 214 197 188 185 183 180 180 181 183 181 178 175 169 165 170 173 168 168 172 180 194 195 181 181 201 214 185 165 156 147 150 164 177 192 183 180 175 176
213 69 39 44 66 16 258 185 265 230 213 206 196 188 184 183 182 181 181 175 171 169 168 167 165 171 178 178 177 170 172 177 174 186 192 211 229 237 199 169 165 169 173 194 196 187 177 186 179
102 98 32 1 10 256 268 188 243 247 221 191 185 188 187 184 179 176 174 171 171 170 170 168 167 173 179 177 179 175 176 177 181 187 191 191 197 222 222 206 194 195 202 206 197 184 199 187 181
233 146 163 198 218 258 303 240 259 264 210 168 168 172 176 183 181 176 176 173 172 171 167 166 168 177 179 181 184 179 177 180 188 190 189 194 199 208 207 200 204 205 202 196 185 191 212 201 208
213 207 174 150 164 173 270 278 307 339 152 132 135 147 162 176 173 169 169 168 168 170 171 171 171 174 179 182 180 179 182 181 188 192 188 195 205 202 191 194 203 210 206 198 178 198 224 213 214
172 172 99 124 159 211 259 252 230 229 216 171 150 158 164 152 152 160 161 160 166 166 164 160 165 174 180 180 184 187 190 190 186 177 185 192 198 198 189 205 200 201 203 199 187 201 218 204 219
27 65 115 130 157 165 206 256 223 199 198 178 180 171 159 149 153 155 157 155 149 146 153 158 161 164 171 177 183 185 193 194 185 184 191 189 185 184 190 199 196 198 202 200 193 206 197 203 225
142 154 138 151 225 172 169 256 264 188 188 179 186 171 152 146 148 149 151 148 147 148 150 156 163 168 175 172 171 184 197 190 188 196 200 185 181 186 186 182 180 194 197 200 204 215 204 195 211
Height
1511 1511 1511 1513 1514 1518 1517 1508 1502 1500 1501 1502 1501 1502 1505 1509 1513 1521 1518 1517 1518 1518 1519 1520 1522 1523 1524 1525 1526 1527 1528 1530 1531 1532 1534 1535 1536 1538 1539 1540 1541 1542 1543 1544 1545 1546 1547 1548 1549
1511 1511 1513 1513 1517 1528 1520 1506 1503 1501 1502 1502 1503 1505 1507 1511 1512 1514 1516 1518 1519 1520 1521 1522 1523 1524 1525 1526 1528 1529 1530 1531 1532 1534 1535 1536 1537 1539 1540 1541 1542 1543 1543 1544 1546 1547 1548 1549 1550
1511 1511 1513 1513 1519 1523 1517 1505 1502 1502 1503 1502 1505 1508 1510 1514 1515 1516 1517 1519 1520 1521 1522 1522 1523 1524 1526 1528 1529 1530 1532 1533 1534 1535 1536 1537 1538 1540 1541 1542 1543 1543 1544 1545 1546 1547 1548 1549 1550
1512 1513 1513 1517 1518 1510 1505 1503 1501 1502 1504 1505 1506 1511 1514 1517 1516 1518 1519 1521 1522 1522 1523 1522 1521 1524 1527 1529 1531 1532 1533 1534 1535 1536 1537 1538 1540 1541 1542 1543 1544 1544 1545 1546 1547 1548 1549 1550 1551
1512 1512 1516 1519 1513 1505 1501 1500 1500 1502 1505 1509 1508 1514 1518 1519 1519 1520 1521 1523 1524 1525 1525 1523 1522 1525 1529 1531 1533 1534 1535 1536 1537 1538 1539 1540 1541 1542 1543 1544 1545 1545 1546 1547 1548 1549 1550 1551 1552
1512 1512 1522 1523 1512 1504 1502 1500 1502 1505 1509 1511 1512 1515 1520 1521 1521 1522 1524 1525 1526 1527 1528 1528 1528 1530 1532 1533 1535 1536 1537 1538 1538 1539 1541 1542 1543 1543 1544 1545 1546 1546 1547 1548 1549 1550 1551 1551 1552
1513 1514 1520 1516 1512 1507 1503 1501 1502 1506 1509 1511 1512 1516 1521 1523 1524 1524 1526 1528 1529 1530 1530 1531 1532 1533 1534 1536 1537 1538 1538 1539 1540 1541 1542 1543 1544 1544 1545 1546 1547 1547 1548 1549 1549 1550 1551 1552 1553
1510 1513 1516 1514 1512 1508 1502 1502 1504 1506 1509 1513 1513 1516 1520 1523 1525 1526 1528 1530 1531 1532 1533 1533 1534 1535 1536 1537 1538 1539 1540 1541 1542 1543 1543 1544 1545 1546 1546 1547 1547 1548 1548 1549 1550 1550 1551 1552 1553
1508 1515 1519 1512 1508 1506 1501 1502 1506 1507 1509 1512 1513 1515 1518 1522 1525 1527 1529 1531 1532 1534 1534 1535 1536 1537 1538 1539 1540 1541 1542 1543 1543 1544 1545 1545 1546 1546 1547 1547 1548 1548 1549 1549 1550 1551 1551 1552 1553
1506 1515 1510 1500 1498 1500 1501 1501 1505 1508 1511 1513 1515 1518 1521 1523 1525 1527 1529 1531 1532 1534 1535 1536 1537 1538 1539 1540 1541 1542 1543 1544 1544 1545 1545 1546 1546 1547 1547 1547 1548 1548 1549 1549 1550 1551 1552 1552 1553
1501 1505 1498 1496 1496 1498 1501 1502 1503 1506 1512 1512 1514 1518 1521 1524 1526 1528 1529 1531 1532 1534 1535 1536 1538 1539 1540 1541 1542 1543 1544 1544 1545 1546 1546 1546 1547 1547 1547 1547 1548 1548 1549 1549 1550 1551 1551 1552 1552
1498 1497 1495 1496 1496 1498 1500 1502 1505 1506 1509 1511 1513 1516 1520 1523 1525 1527 1529 1531 1533 1534 1535 1537 1538 1539 1540 1542 1542 1543 1544 1545 1545 1546 1546 1546 1547 1546 1547 1547 1547 1548 1549 1549 1550 1550 1551 1551 1552
1497 1496 1494 1495 1496 1497 1499 1502 1504 1508 1510 1513 1515 1518 1521 1523 1525 1527 1529 1531 1532 1533 1535 1537 1538 1539 1541 1542 1543 1544 1544 1545 1545 1546 1546 1546 1546 1546 1547 1547 1547 1548 1548 1549 1549 1550 1550 1551 1551
1496 1495 1495 1495 1495 1497 1499 1504 1505 1509 1510 1513 1516 1518 1521 1523 1525 1527 1529 1530 1532 1533 1535 1537 1538 1539 1541 1542 1543 1544 1544 1545 1545 1546 1546 1546 1546 1546 1546 1547 1547 1547 1548 1548 1549 1549 1550 1550 1551
1495 1496 1497 1496 1496 1499 1501 1508 1507 1509 1510 1513 1516 1518 1520 1522 1524 1526 1527 1529 1531 1533 1535 1537 1538 1539 1541 1542 1543 1543 1544 1544 1545 1545 1546 1546 1546 1546 1546 1546 1546 1547 1547 1548 1548 1548 1549 1549 1550
1496 1502 1508 1499 1496 1499 1505 1517 1507 1509 1510 1513 1515 1517 1519 1521 1523 1525 1527 1529 1531 1533 1534 1536 1538 1539 1540 1541 1542 1543 1544 1544 1544 1545 1545 1545 1545 1545 1545 1545 1545 1546 1546 1547 1547 1547 1548 1548 1549
1506 1514 1511 1503 1496 1498 1504 1513 1508 1509 1510 1511 1514 1516 1518 1520 1522 1524 1526 1528 1530 1532 1534 1535 1537 1538 1539 1541 1542 1542 1543 1543 1544 1544 1544 1545 1545 1545 1545 1544 1545 1545 1545 1546 1546 1546 1547 1547 1547
1516 1514 1510 1507 1498 1497 1504 1507 1505 1507 1509 1510 1512 1514 1517 1518 1520 1523 1525 1527 1529 1531 1533 1534 1536 1538 1539 1540 1541 1542 1542 1543 1543 1543 1544 1544 1544 1544 1544 1544 1543 1544 1544 1544 1545 1545 1546 1546 1546
1503 1508 1510 1502 1494 1499 1503 1505 1505 1505 1507 1509 1510 1512 1514 1516 1519 1521 1524 1526 1528 1530 1532 1533 1535 1536 1538 1539 1539 1540 1541 1542 1542 1542 1543 1543 1543 1543 1543 1543 1542 1542 1543 1543 1543 1544 1544 1545 1545
1500 1507 1507 1500 1493 1499 1504 1505 1501 1502 1502 1504 1506 1509 1512 1515 1517 1520 1522 1524 1525 1528 1530 1532 1533 1535 1536 1537 1539 1539 1540 1541 1541 1541 1542 1542 1542 1542 1542 1542 1541 1541 1541 1542 1543 1543 1543 1544 1544
1499 1503 1503 1503 1498 1498 1504 1510 1504 1500 1501 1503 1504 1506 1509 1512 1514 1517 1520 1522 1524 1526 1528 1529 1531 1533 1535 1536 1537 1538 1539 1540 1540 1540 1540 1541 1541 1541 1541 1540 1540 1540 1540 1541 1541 1542 1542 1542 1543
1501 1489 1490 1494 1506 1516 1509 1528 1510 1502 1501 1501 1502 1504 1506 1509 1512 1514 1517 1519 1521 1524 1526 1528 1530 1532 1533 1534 1536 1536 1537 1537 1538 1538 1539 1539 1540 1540 1540 1539 1539 1539 1539 1539 1540 1540 1541 1541 1541
1489 1483 1487 1492 1504 1515 1513 1524 1516 1504 1504 1500 1499 1500 1502 1505 1508 1511 1513 1516 1519 1522 1524 1526 1528 1530 1532 1533 1534 1535 1536 1536 1537 1537 1538 1538 1538 1538 1538 1537 1537 1537 1537 1538 1538 1538 1538 1539 1539
1480 1485 1491 1499 1512 1529 1518 1523 1521 1507 1500 1496 1495 1497 1499 1501 1504 1507 1510 1514 1517 1520 1522 1524 1526 1527 1529 1531 1532 1533 1533 1534 1535 1535 1536 1536 1536 1536 1536 1536 1536 1535 1535 1536 1536 1536 1537 1537 1537
1481 1501 1523 1528 1537 1534 1516 1518 1515 1494 1490 1491 1492 1494 1496 1499 1502 1504 1508 1510 1513 1516 1519 1521 1523 1525 1527 1528 1529 1530 1531 1532 1532 1533 1533 1534 1534 1534 1534 1534 1534 1534 1534 1534 1534 1534 1534 1535 1535
1484 1496 1522 1537 1540 1533 1518 1519 1504 1488 1485 1487 1489 1491 1493 1496 1499 1501 1504 1507 1510 1513 1516 1519 1521 1522 1524 1525 1526 1527 1529 1530 1530 1531 1531 1532 1532 1532 1533 1533 1533 1533 1532 1532 1532 1532 1532 1533 1533
1483 1491 1494 1515 1523 1532 1525 1513 1498 1488 1487 1487 1488 1490 1491 1493 1495 1498 1501 1505 1508 1511 1513 1516 1518 1520 1522 1523 1525 1526 1527 1527 1528 1529 1529 1529 1530 1530 1531 1531 1531 1531 1530 1530 1530 1530 1530 1530 1530
1474 1481 1499 1514 1530 1537 1527 1518 1511 1496 1491 1488 1488 1489 1491 1491 1494 1497 1499 1502 1506 1508 1511 1514 1516 1518 1519 1521 1522 1524 1525 1525 1526 1527 1527 1527 1528 1528 1528 1528 1529 1529 1528 1528 1528 1527 1528 1528 1528
1480 1485 1495 1508 1513 1529 1535 1522 1489 1488 1487 1487 1487 1487 1488 1489 1492 1496 1499 1501 1504 1507 1509 1512 1514 1515 1517 1519 1520 1521 1522 1523 1524 1524 1525 1525 1525 1526 1526 1526 1526 1526 1526 1526 1526 1526 1525 1525 1525
1473 1481 1492 1508 1513 1515 1522 1514 1479 1480 1482 1483 1484 1485 1486 1488 1491 1495 1497 1500 1503 1505 1508 1510 1512 1514 1515 1517 1518 1519 1520 1521 1521 1521 1522 1523 1523 1523 1523 1523 1523 1523 1524 1524 1524 1524 1523 1523 1522